星链-36186(STARLINK-36186)

导读 | 豆包AI

STARLINK-36186是美国于2025年12月17日发射的Starlink星座卫星,隶属于 SpaceX 主导的星链互联网项目。该卫星作为星链低轨星座扩容的组成部分,承担全球高速互联网接入服务,可覆盖偏远地区、移动载具,推动全球网络覆盖,是Starlink星座构建全球通信网络的重要节点。

基本信息
目录编号:
67165
目录名称:
STARLINK-36186
国际标识:
2025-303C
轨道中心:
EARTH
卫星名称:
星链-36186
卫星全名:
星链-36186(STARLINK-36186)
卫星状态:
在轨 (已飞行87 天)
发射日期:
2025-12-17 UTC
国别 :
美国 (US)
星等 :
--
轨道信息
数据来源 国际轨道数据
星历时间: 2026-03-13T23:27:21+0800
17小时前
查看轨道信息
半长轴: 6861.072km
偏心率: 0.0001725
轨道倾角: 43.002°
近地点辐角 165.858°
升交点赤经 288.066°
平近点角 194.232°
近地点: 481.751km
远地点: 484.119km
周期: 94.264分钟
每日圈数: 15.276182
详细信息
固有亮度:
5
最大亮度:
2.5
卫星平台:
Starlink V1.0
覆盖范围:
全球
运营商:
太空探索技术公司
运营商所在国:
美国
制造商(研发单位):
太空探索技术公司
制造商所在国:
美国
使用方式:
暂无
卫星简介
Starlink 计划是 SpaceX 推出的全球卫星互联网项目,通过发射低轨道卫星,为全球尤其是偏远地区提供高速、低延迟的互联网服务。自 2019 年起,Starlink 已部署数千颗卫星,旨在缩小全球数字鸿沟,推动互联网普及。该项目还为军事、航空等行业提供通信支持,带来广泛经济效益。
2D轨道图
3D轨道图
轨道高度分析图
轨道倾角分析图
轨道综合分析图
查看轨道综合分析图